[[{"header":{"parameterUnit":"m.s-1","parameterCategory":1,"la1":30.2991,"la2":30.254,"lo1":-89.0895,"lo2":-89.0444,"dy":0.0017,"dx":0.0017,"nx":28,"ny":28,"refTime":"2025-03-05T09:00:00:Z","depth":0,"parameterNumber":2,"parameterNumberName":"U-component_of_WINDS"},"data":[0,0,0,0,0,0,0,0,0,0,0,0,0,0,0,0,0,0,0,0,0,0,0,0,0,0,0,0,0,0,0,0,0,0,0,0,0,0,0,0,0,0,0,0,0,0,0,0,0,0,0,0,0,0,0,0,0,0,5.2768,5.277,0,5.2942,5.2944,5.2946,5.2903,5.2899,5.2896,5.2893,5.3073,5.3081,5.3089,0,0,0,0,0,0,0,0,0,0,0,0,0,5.2401,5.2408,5.2768,5.277,5.2772,5.2942,5.2944,5.2946,5.2903,5.2899,5.2895,5.2891,5.3071,5.308,5.3089,0,0,0,0,0,0,0,0,0,0,0,0,0,5.2566,5.2411,5.2767,5.2771,5.2773,5.2941,5.2944,5.2947,5.2904,5.2899,5.2894,5.2889,5.3067,5.3079,5.3091,5.3267,0,0,5.3127,5.3132,0,0,0,0,0,0,0,0,5.2557,5.258,5.2768,5.2771,5.2774,5.2895,5.2881,5.3054,5.2906,5.2855,5.2893,5.2887,5.3018,5.3034,5.3078,5.3275,5.3283,5.3128,5.3136,5.3141,5.3144,0,0,0,0,0,0,0,5.2546,5.2572,5.2837,5.2771,5.2774,5.2765,5.2783,5.2914,5.2963,5.2859,5.2856,5.2877,5.3019,5.3066,5.3082,5.3285,5.3128,5.3139,5.3146,5.3151,5.3638,5.3644,0,0,0,0,0,0,5.2532,5.2563,5.2831,5.2842,5.2651,5.2776,5.2796,5.2861,5.2961,5.2972,5.2881,5.2874,5.3048,5.3068,5.3088,5.3302,5.3141,5.3152,5.3159,5.3632,5.3639,5.3646,0,0,0,0,0,0,5.2524,5.2556,5.2824,5.2702,5.2735,5.2787,5.2862,5.2868,5.2915,5.2978,5.2987,5.2921,5.3045,5.3071,5.3223,5.3307,5.3157,5.3168,5.3625,5.3634,5.3642,5.373,0,0,0,0,0,0,5.2514,5.2554,5.262,5.2704,5.2742,5.2956,5.2867,5.2875,5.2936,5.2928,5.3018,5.3028,5.3043,5.3205,5.3235,5.3321,5.3177,5.3618,5.3629,5.364,5.372,5.3741,5.3759,0,0,0,0,0,5.2501,5.2638,5.2624,5.2656,5.2826,5.296,5.2982,5.2997,5.2943,5.3011,5.3052,5.3025,5.3293,5.3221,5.3254,5.3345,5.3613,5.3626,5.3639,5.3711,5.3737,5.3758,0,0,0,0,0,0,5.2563,5.2649,5.2634,5.2802,5.2874,5.2953,5.3039,5.3023,5.3113,5.3102,5.3117,5.3138,5.3293,5.3334,5.3252,5.3522,5.3445,5.3466,5.3489,5.3514,5.3533,5.352,5.3187,0,0,0,0,0,5.2596,5.2697,5.2767,5.2909,5.2946,5.2986,5.3045,5.305,5.3126,5.3157,5.3208,5.3284,5.3385,5.3452,5.3548,5.3726,5.3746,5.3805,5.3824,5.384,5.3857,5.3956,5.3984,5.3688,5.3688,5.3688,0,0,5.2666,5.2725,5.2788,5.2923,5.2979,5.3085,5.3012,5.3126,5.3206,5.3174,5.3321,5.3362,5.3447,5.3613,5.3688,5.3652,5.3943,5.3856,5.3868,5.3877,5.3972,5.4,5.4025,5.3697,5.3695,5.3694,0,0,5.2847,5.2902,5.3027,5.3085,5.3172,5.3198,5.3228,5.331,5.3336,5.3483,5.3462,5.3557,5.3731,5.3793,5.3847,5.4054,5.4034,5.4085,5.4186,5.4283,5.4306,5.4327,5.4402,5.4429,5.4102,5.4103,5.4103,0,5.2923,5.3081,5.3093,5.321,5.327,5.3247,5.3374,5.343,5.3545,5.3588,5.3545,5.3764,5.3819,5.4,5.4051,5.4095,5.4131,5.4075,5.4301,5.4322,5.4342,5.4414,5.4442,5.4108,5.4108,5.4107,5.4107,0,5.3171,5.3281,5.3371,5.3482,5.3553,5.3674,5.3706,5.3776,5.3776,5.3807,5.3959,5.4025,5.4135,5.4178,5.4179,5.4361,5.4335,5.4297,5.4221,5.4376,5.4444,5.4471,5.4117,5.4115,5.4113,5.4112,0,0,5.3396,5.3513,5.3546,5.3597,5.3691,5.3777,5.3898,5.4006,5.4067,5.4147,5.425,5.4399,5.4364,5.4426,5.4434,5.4518,5.468,5.447,5.4472,5.4508,5.4886,5.4915,5.4947,5.4667,5.4672,5.4676,5.488,0,5.3587,5.38,5.3815,5.4008,5.411,5.409,5.4196,5.4267,5.4299,5.4392,5.4429,5.4534,5.448,5.4518,5.46,5.4643,5.4756,5.4628,5.4764,5.4769,5.4745,5.4982,5.5013,5.5202,5.4906,5.4911,5.4914,0,5.3838,5.3925,5.4128,5.421,5.4254,5.4349,5.445,5.4538,5.4618,5.4636,5.4706,5.4702,5.4829,5.4747,5.4923,5.4835,5.4892,5.4922,5.4929,5.4943,5.4851,5.5004,5.5262,5.5291,5.4956,5.4952,5.4949,0,5.3983,5.4152,5.4296,5.434,5.4438,5.4506,5.455,5.4625,5.4689,5.4778,5.482,5.4923,5.4979,5.5059,5.5084,5.5022,5.5259,5.5179,5.5279,5.5279,5.533,5.5327,5.5602,5.5365,5.5365,5.5364,5.5364,0,5.4196,5.4321,5.4363,5.4451,5.4592,5.4609,5.4748,5.4788,5.4856,5.4953,5.4942,5.5033,5.506,5.5157,5.5177,5.532,5.5345,5.5364,5.5369,5.5366,5.5364,5.5404,5.5392,5.5372,5.537,5.5369,5.5368,0,5.4382,5.4415,5.4571,5.4651,5.4675,5.4775,5.4845,5.4931,5.4962,5.5086,5.5116,5.5165,5.5279,5.5311,5.5448,5.5461,5.563,5.5622,5.5603,5.5604,5.5702,5.5693,5.6014,5.6057,5.5791,5.5793,5.5795,0,5.4516,5.4612,5.4703,5.4767,5.4814,5.4918,5.4983,5.5004,5.5074,5.5173,5.5248,5.536,5.545,5.5633,5.5683,5.5788,5.5782,5.5888,5.5798,5.5793,5.5786,5.578,5.579,5.5905,5.5907,5.591,5.5912,0,5.475,5.4762,5.4857,5.4958,5.5037,5.5118,5.5196,5.5249,5.5282,5.536,5.5476,5.5547,5.5687,5.5799,5.5905,5.5952,5.5939,5.5939,5.5968,5.5967,5.5953,5.5964,5.5651,5.5932,5.593,5.5928,5.5927,5.5927,5.4915,5.5,5.5078,5.5185,5.5246,5.5319,5.5404,5.5447,5.5544,5.5659,5.5665,5.5792,5.5871,5.6013,5.6066,5.6166,5.6135,5.6176,5.6187,5.6197,5.6206,5.5937,5.6185,5.6184,5.6184,5.6183,5.6183,0,5.515,5.5199,5.5297,5.5407,5.5491,5.547,5.5555,5.5628,5.5739,5.5814,5.5904,5.6038,5.6147,5.6205,5.6314,5.6383,5.638,5.6412,5.6407,5.6419,5.6227,5.6191,5.6413,5.6412,5.6412,5.6412,5.6412,5.6412,5.5282,5.5426,5.5447,5.5621,5.567,5.5793,5.5844,5.5912,5.5972,5.6123,5.6213,5.625,5.6319,5.6433,5.6533,5.6548,5.6589,5.6624,5.6635,5.6455,5.6432,5.6409,5.6376,5.6633,5.6633,5.6819,5.6821,5.6822]},{"header":{"parameterUnit":"m.s-1","parameterCategory":1,"la1":30.2991,"la2":30.254,"lo1":-89.0895,"lo2":-89.0444,"dy":0.0017,"dx":0.0017,"nx":28,"ny":28,"refTime":"2025-03-05T09:00:00:Z","depth":0,"parameterNumber":3,"parameterNumberName":"V-component_of_WINDS"},"data":[0,0,0,0,0,0,0,0,0,0,0,0,0,0,0,0,0,0,0,0,0,0,0,0,0,0,0,0,0,0,0,0,0,0,0,0,0,0,0,0,0,0,0,0,0,0,0,0,0,0,0,0,0,0,0,0,0,0,-4.7466,-4.7469,0,-4.7677,-4.7679,-4.7682,-4.7666,-4.7663,-4.766,-4.7657,-4.7876,-4.7884,-4.7893,0,0,0,0,0,0,0,0,0,0,0,0,0,-4.7054,-4.7062,-4.7466,-4.7469,-4.7471,-4.7677,-4.7679,-4.7682,-4.7666,-4.7663,-4.7659,-4.7655,-4.7873,-4.7883,-4.7894,0,0,0,0,0,0,0,0,0,0,0,0,0,-4.7246,-4.7064,-4.7466,-4.7488,-4.7492,-4.7676,-4.768,-4.7683,-4.7667,-4.7662,-4.7658,-4.7653,-4.7869,-4.7882,-4.7895,-4.8071,0,0,-4.7935,-4.7941,0,0,0,0,0,0,0,0,-4.7235,-4.7261,-4.7482,-4.7487,-4.7492,-4.764,-4.7615,-4.7813,-4.7668,-4.7601,-4.7656,-4.7651,-4.7801,-4.782,-4.787,-4.8082,-4.8091,-4.7937,-4.7945,-4.795,-4.7954,0,0,0,0,0,0,0,-4.7222,-4.7252,-4.755,-4.7485,-4.7491,-4.7489,-4.7511,-4.7652,-4.7725,-4.7606,-4.7606,-4.7631,-4.7803,-4.7857,-4.7875,-4.8094,-4.7936,-4.7948,-4.7956,-4.7961,-4.8464,-4.8469,0,0,0,0,0,0,-4.7203,-4.7241,-4.7543,-4.7556,-4.7349,-4.75,-4.7525,-4.7597,-4.7724,-4.7738,-4.7635,-4.7629,-4.7837,-4.786,-4.7883,-4.8099,-4.795,-4.7962,-4.797,-4.8459,-4.8465,-4.8471,0,0,0,0,0,0,-4.7194,-4.723,-4.7534,-4.7398,-4.7437,-4.7512,-4.7594,-4.7604,-4.7658,-4.7745,-4.7758,-4.7676,-4.7834,-4.7864,-4.8025,-4.8106,-4.7968,-4.798,-4.8452,-4.8461,-4.8468,-4.8532,0,0,0,0,0,0,-4.7182,-4.7227,-4.7293,-4.74,-4.7444,-4.7672,-4.7599,-4.7612,-4.768,-4.7675,-4.7787,-4.7802,-4.7833,-4.8005,-4.8038,-4.8122,-4.7991,-4.8445,-4.8456,-4.8465,-4.8523,-4.8542,-4.8557,0,0,0,0,0,-4.7168,-4.7303,-4.7297,-4.7333,-4.7529,-4.7677,-4.7702,-4.7735,-4.7687,-4.7756,-4.7812,-4.7798,-4.8092,-4.8022,-4.8059,-4.8148,-4.844,-4.8453,-4.8465,-4.8516,-4.8538,-4.8557,0,0,0,0,0,0,-4.7205,-4.7318,-4.7312,-4.7486,-4.7572,-4.7674,-4.7761,-4.7757,-4.7859,-4.785,-4.7887,-4.7912,-4.8075,-4.8127,-4.8047,-4.8326,-4.826,-4.828,-4.8286,-4.8308,-4.8325,-4.831,-4.8002,0,0,0,0,0,-4.7234,-4.7343,-4.7436,-4.758,-4.7624,-4.7685,-4.7751,-4.7768,-4.7859,-4.7896,-4.7963,-4.8054,-4.8166,-4.824,-4.8348,-4.853,-4.8556,-4.861,-4.8627,-4.8641,-4.8658,-4.8761,-4.8787,-4.8511,-4.8511,-4.8511,0,0,-4.7294,-4.7369,-4.7436,-4.759,-4.7659,-4.7773,-4.7716,-4.7838,-4.7924,-4.7915,-4.8071,-4.8124,-4.8227,-4.84,-4.8479,-4.8449,-4.874,-4.8656,-4.8667,-4.8677,-4.8776,-4.8802,-4.8825,-4.852,-4.8518,-4.8517,0,0,-4.7462,-4.7529,-4.7658,-4.7728,-4.7832,-4.7872,-4.7903,-4.8007,-4.8041,-4.8198,-4.8194,-4.8297,-4.849,-4.8565,-4.8628,-4.8826,-4.8818,-4.886,-4.895,-4.9049,-4.9071,-4.9091,-4.9163,-4.9189,-4.8877,-4.8877,-4.8877,0,-4.7524,-4.7695,-4.7725,-4.7849,-4.7918,-4.7914,-4.8046,-4.8113,-4.8248,-4.8296,-4.826,-4.8503,-4.8572,-4.8763,-4.8812,-4.8862,-4.89,-4.8848,-4.9065,-4.9085,-4.9104,-4.9174,-4.9201,-4.8881,-4.8881,-4.8881,-4.888,0,-4.7767,-4.7885,-4.7977,-4.8107,-4.8186,-4.8314,-4.8365,-4.8442,-4.8453,-4.8497,-4.8659,-4.8741,-4.8867,-4.8914,-4.8925,-4.9108,-4.9086,-4.9057,-4.8991,-4.9134,-4.9201,-4.9227,-4.8888,-4.8886,-4.8885,-4.8884,0,0,-4.7965,-4.811,-4.8144,-4.8204,-4.8319,-4.8412,-4.854,-4.8663,-4.8729,-4.8823,-4.8933,-4.9097,-4.9071,-4.9143,-4.9163,-4.9251,-4.9405,-4.9212,-4.9215,-4.9246,-4.9614,-4.9636,-4.9667,-4.94,-4.9405,-4.9409,-4.9606,0,-4.8147,-4.8372,-4.8404,-4.8604,-4.8716,-4.8714,-4.8826,-4.891,-4.8955,-4.9057,-4.9108,-4.9224,-4.9181,-4.9224,-4.931,-4.9368,-4.948,-4.9354,-4.9505,-4.951,-4.9481,-4.9701,-4.9725,-4.9906,-4.9632,-4.9636,-4.9639,0,-4.8388,-4.8488,-4.87,-4.8802,-4.885,-4.8949,-4.9066,-4.9162,-4.9259,-4.9286,-4.9366,-4.9376,-4.9511,-4.9439,-4.9627,-4.954,-4.9604,-4.9642,-4.965,-4.9667,-4.9584,-4.9726,-4.9965,-4.9993,-4.968,-4.9677,-4.9674,0,-4.8514,-4.8702,-4.8853,-4.8904,-4.9026,-4.9097,-4.9151,-4.9243,-4.9315,-4.9417,-4.9464,-4.9581,-4.9645,-4.9736,-4.9778,-4.9721,-4.9964,-4.9894,-4.9992,-4.9992,-5.0045,-5.0041,-5.0299,-5.0083,-5.0082,-5.0082,-5.0081,0,-4.8715,-4.8845,-4.8911,-4.9005,-4.9151,-4.9187,-4.9331,-4.9383,-4.9465,-4.957,-4.9575,-4.9674,-4.9722,-4.9829,-4.9863,-5.0015,-5.0043,-5.007,-5.0078,-5.0071,-5.0068,-5.0115,-5.0104,-5.0089,-5.0087,-5.0086,-5.0085,0,-4.8881,-4.893,-4.9096,-4.9198,-4.9226,-4.933,-4.9419,-4.951,-4.9554,-4.9687,-4.9721,-4.9791,-4.9918,-4.9968,-5.0122,-5.0145,-5.0321,-5.0317,-5.0288,-5.0291,-5.0387,-5.0378,-5.0686,-5.0729,-5.0481,-5.0483,-5.0485,0,-4.9007,-4.9107,-4.9219,-4.929,-4.9346,-4.9459,-4.9533,-4.9572,-4.9649,-4.9767,-4.9845,-4.9971,-5.0073,-5.0275,-5.0341,-5.046,-5.0461,-5.0561,-5.0479,-5.047,-5.0466,-5.046,-5.0472,-5.0577,-5.0579,-5.0581,-5.0583,0,-4.9225,-4.9245,-4.935,-4.9465,-4.9553,-4.9646,-4.9736,-4.9793,-4.9847,-4.9934,-5.0062,-5.0142,-5.0299,-5.0425,-5.0548,-5.0606,-5.0605,-5.0608,-5.0637,-5.0632,-5.0612,-5.0626,-5.0331,-5.0601,-5.0599,-5.0598,-5.0597,-5.0596,-4.9377,-4.9466,-4.956,-4.9678,-4.975,-4.9834,-4.9926,-4.9982,-5.0089,-5.022,-5.0237,-5.0376,-5.0471,-5.0636,-5.0699,-5.0809,-5.0783,-5.0825,-5.0836,-5.0847,-5.0854,-5.0592,-5.0831,-5.0831,-5.083,-5.083,-5.083,0,-4.9597,-4.9657,-4.9765,-4.9891,-4.9985,-4.9974,-5.0074,-5.0153,-5.0275,-5.0363,-5.0464,-5.0613,-5.0735,-5.0811,-5.0935,-5.1009,-5.1012,-5.104,-5.1036,-5.105,-5.0869,-5.0832,-5.1036,-5.1036,-5.1036,-5.1036,-5.1036,-5.1036,-4.9723,-4.9875,-4.9906,-5.0094,-5.0154,-5.0289,-5.0347,-5.0426,-5.0497,-5.0663,-5.0764,-5.0812,-5.0897,-5.1027,-5.1139,-5.1159,-5.1205,-5.1236,-5.1254,-5.1084,-5.1062,-5.1042,-5.1008,-5.1245,-5.1245,-5.1426,-5.1428,-5.1429]}]]